Location: Banksville Park
(38.5557°N, 75.1182°W)
Time: 23:27:03
(UTC+00:00)

Cosmos 921 Rocket - Pass Details

Date: 19 September 2020
Orbit: 571 x 632 km, 75.8° (Epoch: 30 October)

Event Time Altitude Azimuth Distance (km) Brightness Sun altitude
Exits shadow 08:18:19 34° 101° (E) 961 4.4 -28.6°
Maximum altitude 08:18:20 34° 100° (E) 961 4.4 -28.6°
Drops below altitude 10° 08:22:06 10° 35° (NE) 1,881 6.3 -27.9°
Sets 08:24:27 0° 26° (NNE) 2,784 7.2 -27.5°
